UAL1 KDCA-KEWR

Flight info

Callsign UAL1
Flight time 0h 44m
Altitude 27000
Route SOOKI6 SWANN PHLBO4
Aircraft A320/M-SDE3FGHIRWY/LB1

Departure

Time 2026-04-26 20:35
Airport Ronald Reagan Washington National Airport (KDCA)

Arrival

Time 2026-04-26 21:20
Airport Newark Liberty International Airport (KEWR)
Time Latitude Longitude Altitude Speed Heading
2026-04-26 20:16 38.85030 -77.04053 21 ft 0 kts 270°
2026-04-26 20:27 38.85030 -77.04043 21 ft 4 kts 247°
2026-04-26 20:27 38.85035 -77.04010 23 ft 4 kts 257°
2026-04-26 20:27 38.85045 -77.03980 22 ft 4 kts 226°
2026-04-26 20:28 38.85063 -77.03967 23 ft 1 kts 175°
2026-04-26 20:28 38.85068 -77.03968 21 ft 0 kts 175°
2026-04-26 20:31 38.85062 -77.03967 23 ft 2 kts 175°
2026-04-26 20:31 38.85022 -77.03963 23 ft 8 kts 175°
2026-04-26 20:31 38.84958 -77.03957 21 ft 10 kts 175°
2026-04-26 20:32 38.84879 -77.03949 21 ft 12 kts 175°
2026-04-26 20:32 38.84801 -77.03941 23 ft 7 kts 175°
2026-04-26 20:32 38.84755 -77.03930 24 ft 7 kts 152°
2026-04-26 20:32 38.84724 -77.03886 26 ft 7 kts 140°
2026-04-26 20:33 38.84669 -77.03868 26 ft 9 kts 175°
2026-04-26 20:33 38.84594 -77.03860 24 ft 13 kts 175°
2026-04-26 20:33 38.84497 -77.03850 24 ft 15 kts 176°
2026-04-26 20:33 38.84393 -77.03840 27 ft 15 kts 175°
2026-04-26 20:34 38.84327 -77.03833 27 ft 8 kts 175°
2026-04-26 20:34 38.84249 -77.03816 28 ft 14 kts 154°
2026-04-26 20:34 38.84202 -77.03741 26 ft 8 kts 115°
2026-04-26 20:34 38.84217 -77.03688 24 ft 8 kts 24°
2026-04-26 20:35 38.84285 -77.03688 23 ft 13 kts 355°
2026-04-26 20:35 38.84571 -77.03717 24 ft 84 kts 355°
2026-04-26 20:35 38.85414 -77.03798 85 ft 149 kts 356°
2026-04-26 20:35 38.86509 -77.03896 666 ft 164 kts 354°
2026-04-26 20:36 38.87572 -77.04468 1660 ft 171 kts 326°
2026-04-26 20:36 38.88539 -77.05483 2478 ft 191 kts 323°
2026-04-26 20:36 38.89620 -77.06635 3023 ft 213 kts 320°
2026-04-26 20:36 38.90534 -77.08235 3482 ft 236 kts 301°
2026-04-26 20:37 38.91387 -77.10157 3960 ft 256 kts 308°
2026-04-26 20:37 38.92703 -77.11699 4777 ft 260 kts 329°
2026-04-26 20:37 38.94222 -77.12996 5687 ft 264 kts 331°
2026-04-26 20:37 38.95810 -77.14177 6630 ft 264 kts 340°
2026-04-26 20:38 38.97555 -77.14693 7447 ft 262 kts
2026-04-26 20:38 38.99358 -77.14354 8267 ft 265 kts 19°
2026-04-26 20:38 39.00981 -77.13221 9088 ft 270 kts 37°
2026-04-26 20:38 39.02448 -77.11684 9890 ft 275 kts 40°
2026-04-26 20:39 39.03701 -77.09784 10605 ft 284 kts 56°
2026-04-26 20:39 39.04523 -77.07407 11035 ft 305 kts 72°
2026-04-26 20:39 39.04914 -77.04621 11324 ft 325 kts 78°
2026-04-26 20:39 39.05273 -77.01710 11933 ft 332 kts 78°
2026-04-26 20:40 39.05641 -76.98761 12634 ft 336 kts 77°
2026-04-26 20:40 39.06015 -76.95778 13338 ft 339 kts 77°
2026-04-26 20:40 39.06396 -76.92763 14020 ft 343 kts 77°
2026-04-26 20:40 39.06782 -76.89721 14638 ft 347 kts 77°
2026-04-26 20:41 39.07173 -76.86641 15267 ft 350 kts 77°
2026-04-26 20:41 39.07566 -76.83533 15885 ft 353 kts 76°
2026-04-26 20:41 39.07961 -76.80400 16490 ft 357 kts 76°
2026-04-26 20:41 39.08362 -76.77234 16917 ft 360 kts 76°
2026-04-26 20:42 39.08764 -76.74054 17020 ft 360 kts 76°
2026-04-26 20:42 39.09181 -76.70878 17040 ft 360 kts 76°
2026-04-26 20:42 39.09615 -76.67754 17030 ft 359 kts 75°
2026-04-26 20:42 39.10068 -76.64599 17012 ft 359 kts 75°
2026-04-26 20:43 39.10527 -76.61438 17012 ft 359 kts 75°
2026-04-26 20:43 39.10984 -76.58283 17006 ft 359 kts 75°
2026-04-26 20:43 39.11444 -76.55080 17007 ft 359 kts 75°
2026-04-26 20:43 39.11883 -76.51964 17017 ft 359 kts 76°
2026-04-26 20:44 39.12290 -76.48784 17026 ft 360 kts 76°
2026-04-26 20:44 39.12656 -76.45590 17018 ft 361 kts 77°
2026-04-26 20:44 39.13008 -76.42349 17036 ft 361 kts 77°
2026-04-26 20:44 39.13350 -76.39145 17036 ft 361 kts 77°
2026-04-26 20:45 39.13699 -76.35941 17035 ft 361 kts 77°
2026-04-26 20:45 39.14048 -76.32742 17034 ft 361 kts 77°
2026-04-26 20:45 39.14396 -76.29583 17029 ft 361 kts 77°
2026-04-26 20:45 39.14859 -76.26431 17030 ft 357 kts 69°
2026-04-26 20:46 39.15767 -76.23490 17033 ft 351 kts 58°
2026-04-26 20:46 39.17091 -76.20876 17027 ft 346 kts 46°
2026-04-26 20:46 39.18758 -76.18671 17033 ft 342 kts 38°
2026-04-26 20:46 39.20528 -76.16614 17038 ft 343 kts 38°
2026-04-26 20:47 39.22294 -76.14554 17030 ft 343 kts 38°
2026-04-26 20:47 39.23464 -76.13183 17036 ft 343 kts 38°
2026-04-26 20:47 39.25821 -76.10409 17031 ft 343 kts 38°
2026-04-26 20:47 39.27586 -76.08325 17029 ft 343 kts 38°
2026-04-26 20:48 39.29345 -76.06248 17026 ft 343 kts 38°
2026-04-26 20:48 39.31111 -76.04168 17025 ft 343 kts 38°
2026-04-26 20:48 39.32879 -76.02093 17025 ft 343 kts 38°
2026-04-26 20:48 39.34644 -76.00023 17023 ft 343 kts 38°
2026-04-26 20:49 39.36408 -75.97953 17022 ft 343 kts 38°
2026-04-26 20:49 39.38172 -75.95876 17025 ft 343 kts 38°
2026-04-26 20:49 39.39936 -75.93799 17031 ft 343 kts 38°
2026-04-26 20:49 39.41702 -75.91714 17022 ft 344 kts 38°
2026-04-26 20:50 39.43465 -75.89631 17022 ft 344 kts 38°
2026-04-26 20:50 39.45229 -75.87546 17024 ft 344 kts 38°
2026-04-26 20:50 39.46996 -75.85454 17022 ft 344 kts 38°
2026-04-26 20:50 39.48740 -75.83384 16844 ft 336 kts 38°
2026-04-26 20:51 39.50414 -75.81394 16590 ft 327 kts 38°
2026-04-26 20:51 39.52071 -75.79426 16333 ft 319 kts 38°
2026-04-26 20:51 39.53689 -75.77512 16098 ft 312 kts 38°
2026-04-26 20:51 39.55280 -75.75629 15848 ft 306 kts 38°
2026-04-26 20:52 39.56835 -75.73783 15612 ft 302 kts 38°
2026-04-26 20:52 39.58378 -75.71955 15368 ft 300 kts 38°
2026-04-26 20:52 39.59915 -75.70136 15130 ft 298 kts 38°
2026-04-26 20:52 39.61441 -75.68320 14891 ft 297 kts 38°
2026-04-26 20:53 39.62957 -75.66510 14878 ft 297 kts 38°
2026-04-26 20:53 39.64480 -75.64691 14877 ft 298 kts 38°
2026-04-26 20:53 39.66004 -75.62872 14877 ft 298 kts 38°
2026-04-26 20:53 39.67530 -75.61052 14877 ft 298 kts 38°
2026-04-26 20:54 39.69056 -75.59229 14877 ft 298 kts 38°
2026-04-26 20:54 39.70577 -75.57403 14878 ft 298 kts 38°
2026-04-26 20:54 39.72099 -75.55573 14877 ft 298 kts 38°
2026-04-26 20:54 39.73617 -75.53745 14877 ft 298 kts 38°
2026-04-26 20:55 39.75137 -75.51912 14878 ft 298 kts 38°
2026-04-26 20:55 39.76658 -75.50073 14876 ft 299 kts 38°
2026-04-26 20:55 39.78181 -75.48233 14814 ft 299 kts 38°
2026-04-26 20:55 39.79700 -75.46399 14694 ft 298 kts 38°
2026-04-26 20:56 39.81214 -75.44571 14576 ft 297 kts 38°
2026-04-26 20:56 39.82726 -75.42741 14461 ft 296 kts 38°
2026-04-26 20:56 39.84233 -75.40918 14351 ft 296 kts 38°
2026-04-26 20:56 39.85744 -75.39089 14235 ft 296 kts 38°
2026-04-26 20:57 39.87250 -75.37265 14116 ft 295 kts 38°
2026-04-26 20:57 39.88753 -75.35446 13998 ft 295 kts 38°
2026-04-26 20:57 39.90254 -75.33627 13870 ft 295 kts 38°
2026-04-26 20:57 39.91754 -75.31806 13737 ft 294 kts 38°
2026-04-26 20:58 39.93248 -75.29991 13605 ft 294 kts 38°
2026-04-26 20:58 39.94739 -75.28177 13471 ft 293 kts 38°
2026-04-26 20:58 39.96229 -75.26366 13349 ft 293 kts 38°
2026-04-26 20:58 39.97720 -75.24555 13209 ft 293 kts 38°
2026-04-26 20:59 39.99207 -75.22748 13090 ft 293 kts 38°
2026-04-26 20:59 40.00676 -75.20961 12960 ft 292 kts 38°
2026-04-26 20:59 40.02178 -75.19131 12829 ft 291 kts 39°
2026-04-26 20:59 40.03656 -75.17329 12714 ft 291 kts 39°
2026-04-26 21:00 40.05112 -75.15552 12578 ft 290 kts 39°
2026-04-26 21:00 40.06587 -75.13752 12386 ft 290 kts 39°
2026-04-26 21:00 40.08045 -75.11970 12121 ft 285 kts 39°
2026-04-26 21:00 40.09484 -75.10207 11783 ft 283 kts 39°
2026-04-26 21:01 40.10920 -75.08452 11435 ft 283 kts 39°
2026-04-26 21:01 40.12357 -75.06697 11078 ft 282 kts 39°
2026-04-26 21:01 40.13788 -75.04943 10793 ft 281 kts 40°
2026-04-26 21:01 40.15213 -75.03195 10537 ft 281 kts 40°
2026-04-26 21:02 40.16632 -75.01453 10280 ft 279 kts 40°
2026-04-26 21:02 40.18045 -74.99720 10012 ft 278 kts 40°
2026-04-26 21:02 40.19454 -74.97993 9738 ft 276 kts 40°
2026-04-26 21:02 40.20853 -74.96277 9479 ft 275 kts 40°
2026-04-26 21:03 40.22242 -74.94568 9228 ft 273 kts 41°
2026-04-26 21:03 40.23621 -74.92866 8970 ft 272 kts 41°
2026-04-26 21:03 40.24994 -74.91174 8714 ft 270 kts 41°
2026-04-26 21:03 40.26330 -74.89457 8469 ft 269 kts 44°
2026-04-26 21:04 40.27611 -74.87689 8226 ft 267 kts 45°
2026-04-26 21:04 40.28868 -74.85906 7976 ft 266 kts 46°
2026-04-26 21:04 40.30132 -74.84102 7493 ft 271 kts 46°
2026-04-26 21:04 40.31392 -74.82306 7238 ft 266 kts 46°
2026-04-26 21:05 40.32642 -74.80534 6901 ft 264 kts 46°
2026-04-26 21:05 40.33884 -74.78775 6613 ft 262 kts 46°
2026-04-26 21:05 40.35116 -74.77035 6288 ft 260 kts 46°
2026-04-26 21:05 40.36335 -74.75318 5978 ft 258 kts 46°
2026-04-26 21:06 40.37558 -74.73597 5510 ft 260 kts 46°
2026-04-26 21:06 40.38820 -74.71820 4790 ft 272 kts 46°
2026-04-26 21:06 40.40123 -74.69989 4256 ft 270 kts 46°
2026-04-26 21:06 40.41354 -74.68257 4087 ft 249 kts 47°
2026-04-26 21:07 40.42325 -74.66506 3974 ft 229 kts 64°
2026-04-26 21:07 40.42816 -74.64630 3918 ft 207 kts 71°
2026-04-26 21:07 40.43222 -74.62905 3860 ft 190 kts 71°
2026-04-26 21:07 40.43605 -74.61298 3835 ft 174 kts 70°
2026-04-26 21:08 40.43946 -74.59862 3764 ft 155 kts 70°
2026-04-26 21:08 40.44258 -74.58547 3719 ft 149 kts 70°
2026-04-26 21:08 40.44564 -74.57265 3661 ft 147 kts 71°
2026-04-26 21:08 40.44856 -74.56039 3670 ft 138 kts 70°
2026-04-26 21:09 40.45142 -74.54847 3632 ft 136 kts 70°
2026-04-26 21:09 40.45425 -74.53662 3593 ft 136 kts 69°
2026-04-26 21:09 40.45616 -74.52860 3563 ft 136 kts 69°
2026-04-26 21:09 40.45988 -74.51290 3503 ft 136 kts 70°
2026-04-26 21:10 40.46266 -74.50113 3469 ft 135 kts 71°
2026-04-26 21:10 40.46454 -74.49316 3452 ft 135 kts 70°
2026-04-26 21:10 40.46823 -74.47756 3397 ft 137 kts 70°
2026-04-26 21:10 40.47103 -74.46568 3364 ft 136 kts 71°
2026-04-26 21:11 40.47294 -74.45762 3358 ft 137 kts 71°
2026-04-26 21:11 40.47575 -74.44579 3322 ft 136 kts 70°
2026-04-26 21:11 40.47857 -74.43398 3290 ft 135 kts 70°
2026-04-26 21:11 40.48138 -74.42209 3254 ft 136 kts 70°
2026-04-26 21:12 40.48418 -74.41019 3217 ft 135 kts 70°
2026-04-26 21:12 40.48697 -74.39836 3186 ft 135 kts 71°
2026-04-26 21:12 40.48978 -74.38648 3144 ft 136 kts 70°
2026-04-26 21:12 40.49255 -74.37465 3110 ft 136 kts 71°
2026-04-26 21:13 40.49533 -74.36276 3062 ft 138 kts 71°
2026-04-26 21:13 40.49814 -74.35083 3033 ft 136 kts 71°
2026-04-26 21:13 40.50093 -74.33903 3005 ft 135 kts 69°
2026-04-26 21:13 40.50368 -74.32746 2967 ft 135 kts 70°
2026-04-26 21:14 40.50649 -74.31551 2933 ft 135 kts 70°
2026-04-26 21:14 40.50922 -74.30387 2895 ft 135 kts 71°
2026-04-26 21:14 40.51197 -74.29218 2863 ft 134 kts 70°
2026-04-26 21:14 40.51521 -74.28071 2827 ft 133 kts 56°
2026-04-26 21:15 40.52213 -74.27270 2753 ft 137 kts 27°
2026-04-26 21:15 40.53070 -74.26739 2633 ft 135 kts 27°
2026-04-26 21:15 40.53916 -74.26202 2524 ft 135 kts 28°
2026-04-26 21:15 40.54758 -74.25668 2408 ft 134 kts 28°
2026-04-26 21:16 40.55597 -74.25136 2300 ft 134 kts 27°
2026-04-26 21:16 40.56443 -74.24601 2196 ft 134 kts 28°
2026-04-26 21:16 40.57280 -74.24071 2123 ft 134 kts 28°
2026-04-26 21:16 40.58117 -74.23541 2076 ft 134 kts 28°
2026-04-26 21:17 40.58961 -74.23006 1966 ft 135 kts 27°
2026-04-26 21:17 40.59801 -74.22474 1825 ft 136 kts 27°
2026-04-26 21:17 40.60636 -74.21945 1669 ft 134 kts 28°
2026-04-26 21:17 40.61478 -74.21411 1482 ft 133 kts 26°
2026-04-26 21:18 40.62315 -74.20881 1311 ft 134 kts 29°
2026-04-26 21:18 40.63150 -74.20351 1129 ft 133 kts 29°
2026-04-26 21:18 40.63980 -74.19824 943 ft 133 kts 29°
2026-04-26 21:18 40.64818 -74.19292 748 ft 135 kts 28°
2026-04-26 21:19 40.65659 -74.18758 567 ft 134 kts 29°
2026-04-26 21:19 40.66499 -74.18226 404 ft 134 kts 32°
2026-04-26 21:19 40.67330 -74.17698 225 ft 132 kts 28°
2026-04-26 21:19 40.68159 -74.17170 38 ft 130 kts 29°
2026-04-26 21:20 40.68860 -74.16719 20 ft 96 kts 25°
2026-04-26 21:20 40.69335 -74.16385 25 ft 61 kts 20°
2026-04-26 21:20 40.69602 -74.16288 21 ft 22 kts 356°
2026-04-26 21:20 40.69724 -74.16314 18 ft 11 kts 328°
2026-04-26 21:21 40.69716 -74.16398 18 ft 11 kts 222°
2026-04-26 21:21 40.69700 -74.16409 19 ft 0 kts 207°
2026-04-26 21:22 40.69692 -74.16415 18 ft 3 kts 208°
2026-04-26 21:22 40.69662 -74.16435 18 ft 7 kts 205°
2026-04-26 21:22 40.69600 -74.16473 20 ft 10 kts 205°
2026-04-26 21:23 40.69470 -74.16557 24 ft 11 kts 206°
2026-04-26 21:23 40.69394 -74.16606 23 ft 13 kts 206°
2026-04-26 21:23 40.69305 -74.16662 25 ft 15 kts 205°
2026-04-26 21:23 40.69208 -74.16723 25 ft 17 kts 206°
2026-04-26 21:24 40.69090 -74.16798 22 ft 18 kts 205°
2026-04-26 21:24 40.69023 -74.16851 22 ft 7 kts 255°
2026-04-26 21:24 40.69038 -74.16922 22 ft 9 kts 296°
2026-04-26 21:24 40.69074 -74.17021 20 ft 15 kts 295°
2026-04-26 21:25 40.69120 -74.17147 18 ft 10 kts 296°
2026-04-26 21:25 40.69131 -74.17196 18 ft 5 kts 260°
2026-04-26 21:25 40.69096 -74.17235 17 ft 8 kts 213°
2026-04-26 21:25 40.69040 -74.17270 19 ft 9 kts 205°
2026-04-26 21:26 40.69032 -74.17318 19 ft 6 kts 282°
2026-04-26 21:26 40.69051 -74.17369 20 ft 7 kts 296°
2026-04-26 21:26 40.69081 -74.17436 19 ft 10 kts 316°
2026-04-26 21:26 40.69093 -74.17439 18 ft 0 kts 13°
2026-04-26 21:27 40.69097 -74.17437 18 ft 3 kts 17°
2026-04-26 21:27 40.69116 -74.17427 18 ft 1 kts 22°
2026-04-26 21:28 40.69132 -74.17418 18 ft 5 kts 22°
2026-04-26 21:28 40.69133 -74.17418 18 ft 1 kts 22°
2026-04-26 21:28 40.69135 -74.17417 18 ft 0 kts 22°
2026-04-26 21:30 40.69129 -74.17416 18 ft 0 kts 49°